Manchester, NH

10:33 PM EST on February 22, 2018 (GMT -0500)
Manchester

Weather History for KMHT - February, 2013

Change the Weather History Date:

Tuesday, February 12, 2013

  Actual Average Record
Temperature  
Mean Temperature 36 °F 27 °F  
Max Temperature 42 °F 36 °F 57 °F (1999)
Min Temperature 30 °F 18 °F -8 °F (1967)
Degree Days  
Heating Degree Days 29 38  
Month to date heating degree days 467  
Since 1 July heating degree days 4093  
Cooling Degree Days 0 0  
Month to date cooling degree days 0  
Year to date cooling degree days 0  
Moisture  
Dew Point 27 °F    
Average Humidity 66    
Maximum Humidity 92    
Minimum Humidity 53    
Precipitation  
Precipitation 0.00 in 0.11 in 0.95 in (1910)
Month to date precipitation 0.98  
Year to date precipitation 4.00  
Snow  
Snow 0.00 in - - ()
Month to date snowfall  
Since 1 July snowfall  
Snow Depth 9.00 in    
Sea Level Pressure  
Sea Level Pressure 29.73 in    
Wind  
Wind Speed 7 mph (WSW)    
Max Wind Speed 15 mph    
Max Gust Speed 24 mph    
Visibility 10 miles    
Events      
T = Trace of Precipitation, MM = Missing Value Source: NWS Daily Summary

Daily Weather History Graph

Daily Weather History Graph

Search for Another Location

Airport or City:

Trip Planner

Search our weather history database for the weather conditions in past years. The results will help you decide how hot, cold, wet, or windy it might be!

Date:

Astronomy

Feb. 12, 2013 Rise Set
Actual Time 6:46 AM EST 5:13 PM EST
Civil Twilight 6:17 AM EST 5:42 PM EST
Nautical Twilight 5:44 AM EST 6:16 PM EST
Astronomical Twilight 5:11 AM EST 6:49 PM EST
Moon 7:37 AM EST (2/12) 8:17 PM EST (2/12)
Length of Visible Light 11h 25m
Length of Day
10h 26m
Waxing Crescent, 7% of the Moon is Illuminated
Feb 12
Waxing Crescent
Feb 17
First Quarter
Feb 25
Full
Mar 4
Last Quarter
Mar 11
New

Hourly Weather History & Observations

Time (EST) Temp. Windchill Dew Point Humidity Pressure Visibility Wind Dir Wind Speed Gust Speed Precip Events Conditions
12:53 AM 30.9 °F 26.2 °F 28.9 °F 92% 29.63 in 5.0 mi SSW 4.6 mph - N/A   Overcast
1:53 AM 30.0 °F 25.2 °F 27.0 °F 88% 29.65 in 10.0 mi SE 4.6 mph - N/A   Partly Cloudy
2:53 AM 35.1 °F 32.2 °F 28.9 °F 78% 29.65 in 10.0 mi SW 3.5 mph - N/A   Clear
3:53 AM 35.1 °F 29.3 °F 28.9 °F 78% 29.65 in 10.0 mi WSW 6.9 mph - N/A   Mostly Cloudy
4:53 AM 34.0 °F 28.0 °F 28.0 °F 79% 29.66 in 10.0 mi WSW 6.9 mph - N/A   Clear
5:53 AM 35.1 °F 30.1 °F 28.0 °F 76% 29.67 in 10.0 mi WSW 5.8 mph - N/A   Mostly Cloudy
6:53 AM 35.1 °F 29.3 °F 28.0 °F 76% 29.68 in 10.0 mi WSW 6.9 mph - N/A   Overcast
7:53 AM 36.0 °F 29.6 °F 27.0 °F 70% 29.68 in 10.0 mi WSW 8.1 mph - N/A   Mostly Cloudy
8:53 AM 37.9 °F 33.5 °F 27.0 °F 65% 29.68 in 10.0 mi West 5.8 mph - N/A   Partly Cloudy
9:53 AM 39.9 °F 32.5 °F 26.1 °F 58% 29.69 in 10.0 mi West 12.7 mph 24.2 mph N/A   Partly Cloudy
10:53 AM 41.0 °F 33.5 °F 25.0 °F 53% 29.70 in 10.0 mi West 13.8 mph 19.6 mph N/A   Mostly Cloudy
11:53 AM 41.0 °F 33.1 °F 25.0 °F 53% 29.70 in 10.0 mi West 15.0 mph 23.0 mph N/A   Mostly Cloudy
12:53 PM 41.0 °F 34.7 °F 25.0 °F 53% 29.71 in 10.0 mi WSW 10.4 mph 19.6 mph N/A   Mostly Cloudy
1:53 PM 42.1 °F 36.6 °F 26.1 °F 53% 29.72 in 10.0 mi West 9.2 mph 20.7 mph N/A   Mostly Cloudy
2:53 PM 39.9 °F 35.1 °F 26.1 °F 58% 29.74 in 10.0 mi WSW 6.9 mph 18.4 mph N/A   Overcast
3:53 PM 39.9 °F 33.4 °F 27.0 °F 60% 29.76 in 10.0 mi WSW 10.4 mph - N/A   Overcast
4:53 PM 39.9 °F 33.9 °F 26.1 °F 58% 29.76 in 10.0 mi West 9.2 mph - N/A   Mostly Cloudy
5:53 PM 39.0 °F 34.8 °F 26.1 °F 60% 29.77 in 10.0 mi WSW 5.8 mph - N/A   Overcast
6:53 PM 37.9 °F 34.4 °F 27.0 °F 65% 29.79 in 10.0 mi West 4.6 mph - N/A   Overcast
7:53 PM 37.9 °F 32.7 °F 26.1 °F 62% 29.84 in 10.0 mi WSW 6.9 mph - N/A   Mostly Cloudy
8:53 PM 37.9 °F 32.1 °F 26.1 °F 62% 29.88 in 10.0 mi WSW 8.1 mph - N/A   Overcast
9:53 PM 37.0 °F 31.0 °F 26.1 °F 65% 29.86 in 10.0 mi West 8.1 mph - N/A   Overcast
10:53 PM 36.0 °F 32.1 °F 25.0 °F 64% 29.85 in 10.0 mi West 4.6 mph - N/A   Overcast
11:53 PM 36.0 °F 31.1 °F 25.0 °F 64% 29.86 in 10.0 mi WSW 5.8 mph - N/A   Overcast